sat.trackr.live / text

‹ back to catalog

STARLINK-5411

NORAD 54865 · 2022-177AX

PAYLOAD ACTIVE UNKNOWN

§ Identity

Operator
Country
US
Launch date
2022-12-28
Launch site
AFETR
Launch vehicle
Mass (kg)
RCS (m²)

Purposes: comms

External: N2YO · Heavens-Above · Gunter

§ Orbital elements

Epoch: 2026-05-25T00:19:02.239104Z

Period
94.27 min
Inclination
43.0046°
Eccentricity
0.0001341
Mean motion
15.27577125 rev/d
Perigee alt
482.1 km
Apogee alt
484.0 km
Semi-major
6,861.2 km
B*
1.2110e-5
RAAN
50.5149°
Arg perigee
260.6039°
Mean anomaly
99.4661°
Rev number
18,876

§ Raw data

STARLINK-54111 54865U 22177AX  26145.01322036  .00000071  00000+0  12110-4 0  99982 54865  43.0046  50.5149 0001341 260.6039  99.4661 15.27577125188763

JSON: /api/v1/satellites/54865 · /tle

For live sub-satellite position, see the globe view (requires WebGL).

§ Visibility from observer

Set your observer location to see the next 7 days of passes ≥ 10°. The values pass through the URL so the page stays shareable.

No JS? Fill the form by hand. The geolocation button needs JavaScript.